Location: Caltech
(34.1382°N, 118.1253°W)
Time: 20:23:07
(UTC-07:00)

Iridium 49 - Visible Passes

Search period start: 03 August 2015 00:00
Search period end: 13 August 2015 00:00
Orbit: 776 x 779 km, 86.4° (Epoch: 03 August)

Date Brightness Start Highest point End Pass type
(mag) Time Alt. Az. Time Alt. Az. Time Alt. Az.
03 Aug 8.7 02:33:06 10° NE 02:34:47 12° ENE 02:36:49 10° E visible
03 Aug 6.0 04:10:56 10° N 04:16:06 63° W 04:18:03 37° SSW visible
04 Aug 6.2 03:37:24 10° N 03:42:36 67° E 03:44:04 45° SSE visible
04 Aug 7.9 05:21:22 10° WNW 05:22:48 11° W 05:23:51 10° W visible
05 Aug 7.3 03:04:16 10° NNE 03:08:57 34° E 03:10:07 31° ESE visible
05 Aug 7.3 04:45:31 10° NW 04:49:30 22° W 04:50:33 20° W visible
06 Aug 8.2 02:31:46 10° NE 02:35:09 18° ENE 02:36:12 17° E visible
06 Aug 6.4 04:11:15 10° NNW 04:16:08 41° W 04:16:38 40° WSW visible
07 Aug 5.8 03:37:28 10° N 03:42:42 82° W 03:42:45 82° WSW visible
08 Aug 6.7 03:04:05 10° N 03:08:53 50° ENE 03:08:53 50° ENE visible
08 Aug 7.8 04:46:35 10° NW 04:49:19 15° W 04:49:19 15° W visible
09 Aug 7.8 02:31:08 10° NNE 02:35:02 26° ENE 02:35:02 26° ENE visible
09 Aug 7.1 04:11:43 10° NNW 04:15:28 27° WNW 04:15:28 27° WNW visible
10 Aug 8.6 01:59:07 10° NE 02:01:12 14° ENE 02:01:12 14° ENE visible
10 Aug 6.6 03:37:40 10° NNW 03:41:39 45° NW 03:41:39 45° NW visible
11 Aug 6.8 03:04:03 10° N 03:07:51 49° NNE 03:07:51 49° NNE visible
12 Aug 7.6 02:30:49 10° NNE 02:34:03 31° NE 02:34:03 31° NE visible
12 Aug 7.8 04:12:27 10° NW 04:14:30 17° WNW 04:14:30 17° WNW visible
